Bei uns kannst du mitfliegen! Besuche uns und lerne uns kennen - als Gast, Pilot oder jemand der es werden möchte.

Kölner Klub für Luftsport e.V.

KKFL.de

Ausbildung – Fliegen – Abenteuer

Ausbildung im KKFL

Ausbildung

Fliegen lernen im Verein
Der KKFL.de bietet eine effiziente, schnelle Ausbildung zur Pivatpilotenlizenz (PPL) in verschiedenen Ausprägungen an. Nach der Ausbildung können diverse Ergänzungen vom Verstellpropeller bis hin zu Nachtflug oder das Fliegen nach Instrumentenflugregeln (IFR) angeschlossen werden.
Fliegen im Verein ist günstig!

Unsere Flotte

Cessna 172 S

D-EOCD
Die Cessna ist als schnelle Schul- und Reisemaschine gleichsam beliebt. Unsere vereins-eigene Flotte sorgt für Abwechlung bei den Piloten und unsere Werft senkt Kosten. In der Ausbildung dürfen Schüler über 'ihre Maschine' mit entscheiden.

Cessna 172 R

D-EFPB

Piper PA 28 II

D-EFPA

Aquila A210

D-EAQJ

Piper PA 28 II

D-ELFF

Flugplatz Hangelar


[Quelle: ADDS]
METAR
EDDK 162020Z 17008KT 9999 SCT044 14/12 Q1010 NOSIG =
EDDK 161700Z 1618/1724 16008KT 9999 BKN030 TEMPO 1618/1702 RA BKN012 PROB30 TEMPO 1702/1708 4000 -RA BKN012 PROB30 TEMPO 1718/1721 RA BKN014
TAF
EDDK 161700Z 1618/1724 16008KT 9999 BKN030 TEMPO 1618/1702 RA BKN012 PROB30 TEMPO 1702/1708 4000 -RA BKN012 PROB30 TEMPO 1718/1721 RA BKN014 =
SR / SS: 05:55 / 16:38 UTC (EDKB 2019-10-16)

Du willst fliegen?

Während unserer Bürozeiten und auch dazwischen sind wir für deine Fragen da.
Bitte kontaktiere den Verein unter den angegebenen Adressen.
© 2019 - Kölner Klub für Luftsport e.V.
Bonn / Hangelar - EDKB - Germany